Find Starlink 11297

NORAD ID: 61060 Int'l Des: 2024-164 Owner: SPXS Country: US Constellation: starlink operational
LEOCIRCULAR

Live-Position

3D-Globus wird geladen...

Über Starlink 11297

Beschreibung wird geladen...

Nächste Überflüge

Passes for default location (London). Set your location on the main map for personalized predictions.

Höhenverlauf

Loading altitude history...

Zweizeiliger Elementsatz

1 61060U 24164L 26127.12096788 .00007242 00000-0 64551-4 0 9999
2 61060 53.1573 23.4064 0000948 94.8803 265.2323 15.69721181 94592
Epoch: 7. Mai 2026 • Age: 14 hours

Aktueller Status

Höhe 365.2 km
Geschwindigkeit 7.70 km/s
Subsatellitenpunkt 51.76°N, 7.67°E
Startdatum 13. Sept. 2024
Alter 1.6 years
Typ internet

Technische Details

Klassifizierung Payload
Masse 960.00 kg
Trockenmasse 910.00 kg
Gesamtmasse 960.00 kg
Länge 0.30 m
Durchmesser 4.10 m
Spannweite 29.00 m
Form Box + pan
Hersteller SPXS
Bus-Typ Starlink V2MD
Phasenstatus In Orbit
Besitzer/Staat SPXS/US

Most Searched